Weather History for Manitowoc, WI

Change the Weather History Date:

Saturday, January 11, 2014

  Actual Average Record
Temperature  
Mean Temperature 33 °F -  
Max Temperature 36 °F 25 °F 53 °F (2012)
Min Temperature 30 °F 8 °F -17 °F (1979)
Degree Days  
Heating Degree Days 32    
Moisture  
Dew Point 31 °F    
Average Humidity 89    
Maximum Humidity 100    
Minimum Humidity 78    
Precipitation  
Precipitation 0.00 in - - ()
Sea Level Pressure  
Sea Level Pressure 29.49 in    
Wind  
Wind Speed 8 mph (West)    
Max Wind Speed 20 mph    
Max Gust Speed 25 mph    
Visibility 7 miles    
Events Rain , Snow    
Averages and records for this station are not official NWS values.
T = Trace of Precipitation, MM = Missing Value Source: NWS Daily Summary

Daily Weather History Graph

Daily Weather History Graph

Search for Another Location

Airport:

Trip Planner

Search our weather history database for the weather conditions in past years. The results will help you decide how hot, cold, wet, or windy it might be!

Date:

Astronomy

Jan. 11, 2014 Rise Set
Actual Time 7:24 AM CST 4:33 PM CST
Civil Twilight 6:51 AM CST 5:05 PM CST
Nautical Twilight 6:15 AM CST 5:41 PM CST
Astronomical Twilight 5:41 AM CST 6:16 PM CST
Moon 1:18 PM CST (1/11) 3:26 AM CST (1/11)
Length of Visible Light 10h 13m
Length of Day
9h 09m
Waxing Gibbous, 83% of the Moon is Illuminated
Jan 11
Waxing Gibbous
Jan 15
Full
Jan 23
Last Quarter
Jan 30
New
Feb 6
First Quarter

Hourly Weather History & Observations

Time (CST) Temp. Windchill Dew Point Humidity Pressure Visibility Wind Dir Wind Speed Gust Speed Precip Events Conditions
12:18 AM 35.6 °F 29.9 °F 33.8 °F 93% 29.43 in 2.5 mi South 6.9 mph - 0.00 in Rain Light Rain
12:56 AM 35.1 °F 32.2 °F 34.0 °F 96% 29.48 in 2.5 mi SSW 3.5 mph - 0.00 in   Overcast
1:29 AM 35.6 °F 29.9 °F 33.8 °F 93% 29.41 in 1.5 mi South 6.9 mph - N/A   Overcast
1:56 AM 35.1 °F 31.0 °F 34.0 °F 96% 29.48 in 1.8 mi SSW 4.6 mph - N/A   Overcast
2:35 AM 35.6 °F - 33.8 °F 93% 29.39 in 1.0 mi Calm Calm - N/A   Overcast
2:56 AM 35.1 °F - 34.0 °F 96% 29.45 in 1.2 mi Calm Calm - N/A   Overcast
3:08 AM 35.6 °F 32.8 °F 33.8 °F 93% 29.36 in 0.8 mi WNW 3.5 mph - N/A   Overcast
3:20 AM 35.6 °F 31.7 °F 33.8 °F 93% 29.37 in 1.0 mi West 4.6 mph - N/A   Overcast
3:25 AM 35.6 °F 32.8 °F 33.8 °F 93% 29.37 in 2.0 mi WSW 3.5 mph - N/A   Overcast
3:40 AM 35.6 °F 29.9 °F 35.6 °F 100% 29.37 in 5.0 mi West 6.9 mph - N/A   Overcast
3:56 AM 36.0 °F 31.1 °F 35.1 °F 97% 29.45 in 8.0 mi West 5.8 mph - N/A   Overcast
4:14 AM 35.6 °F 30.7 °F 35.6 °F 100% 29.37 in 8.0 mi West 5.8 mph - N/A   Overcast
4:56 AM 35.1 °F 28.6 °F 34.0 °F 96% 29.44 in 10.0 mi West 8.1 mph - N/A   Overcast
5:56 AM 34.0 °F 28.0 °F 33.1 °F 96% 29.44 in 10.0 mi West 6.9 mph - N/A   Overcast
6:32 AM 33.8 °F 26.4 °F 33.8 °F 100% 29.37 in 6.0 mi West 9.2 mph - 0.00 in   Overcast
6:56 AM 34.0 °F 26.0 °F 32.0 °F 92% 29.43 in 7.0 mi WNW 10.4 mph - 0.00 in Snow Light Snow
7:12 AM 33.8 °F 25.8 °F 32.0 °F 93% 29.36 in 9.0 mi WNW 10.4 mph - 0.00 in Snow Light Snow
7:56 AM 33.1 °F 24.4 °F 30.9 °F 92% 29.45 in 10.0 mi WNW 11.5 mph - 0.00 in   Overcast
8:56 AM 33.1 °F 23.4 °F 28.9 °F 85% 29.46 in 10.0 mi WNW 13.8 mph - N/A   Overcast
9:36 AM 33.8 °F 23.2 °F 28.4 °F 81% 29.40 in 10.0 mi WNW 17.3 mph 21.9 mph N/A   Overcast
9:56 AM 33.1 °F 23.4 °F 28.0 °F 82% 29.47 in 10.0 mi WNW 13.8 mph - N/A   Overcast
10:32 AM 33.8 °F 23.9 °F 28.4 °F 81% 29.41 in 10.0 mi WNW 15.0 mph 24.2 mph N/A   Overcast
10:56 AM 33.1 °F 22.6 °F 28.0 °F 82% 29.48 in 10.0 mi WNW 16.1 mph 20.7 mph N/A   Overcast
11:56 AM 32.0 °F 20.1 °F 27.0 °F 82% 29.47 in 10.0 mi WNW 19.6 mph 25.3 mph N/A   Overcast
12:56 PM 30.9 °F 19.8 °F 28.0 °F 89% 29.48 in 9.0 mi WNW 16.1 mph 25.3 mph N/A   Overcast
1:56 PM 30.9 °F 19.4 °F 28.0 °F 89% 29.49 in 10.0 mi WNW 17.3 mph 23.0 mph N/A   Overcast
2:56 PM 30.9 °F 21.7 °F 27.0 °F 85% 29.53 in 10.0 mi WNW 11.5 mph - N/A   Overcast
3:56 PM 30.9 °F 21.2 °F 27.0 °F 85% 29.56 in 10.0 mi WNW 12.7 mph - N/A   Overcast
4:35 PM 30.2 °F 19.3 °F 26.6 °F 86% 29.51 in 10.0 mi WNW 15.0 mph - N/A   Overcast
4:56 PM 30.9 °F 22.2 °F 27.0 °F 85% 29.60 in 10.0 mi WNW 10.4 mph - N/A   Overcast
5:56 PM 32.0 °F 22.5 °F 27.0 °F 82% 29.60 in 10.0 mi WNW 12.7 mph - N/A   Overcast
6:56 PM 32.0 °F 22.5 °F 27.0 °F 82% 29.64 in 10.0 mi WNW 12.7 mph - N/A   Overcast
7:56 PM 33.1 °F 23.4 °F 28.0 °F 82% 29.65 in 9.0 mi WNW 13.8 mph - N/A   Overcast
8:56 PM 33.1 °F 25.5 °F 28.0 °F 82% 29.69 in 9.0 mi West 9.2 mph 17.3 mph N/A   Overcast
9:56 PM 33.1 °F 23.9 °F 27.0 °F 78% 29.71 in 10.0 mi West 12.7 mph - N/A   Overcast
10:56 PM 32.0 °F 22.5 °F 26.1 °F 79% 29.73 in 10.0 mi WNW 12.7 mph 18.4 mph N/A   Overcast
11:56 PM 32.0 °F 21.6 °F 27.0 °F 82% 29.73 in 10.0 mi WNW 15.0 mph 20.7 mph N/A   Overcast